Location: St. Louis
(38.6270°N, 90.1994°W)
Time: 06:03:42
(UTC-06:00)

A-11 Canister half - Pass Details

Date: 02 December 2021
Orbit: 1524 x 1684 km, 47.3° (Epoch: 22 January)

Event Time Altitude Azimuth Distance (km) Brightness Sun altitude
Exits shadow 05:55:54 15° 298° (WNW) 3,562 10.3 -12.5°
Maximum altitude 06:04:33 57° 13° (NNE) 1,873 9.4 -10.9°
Drops below altitude 10° 06:14:06 10° 91° (E) 3,804 12.4 -9.2°
Sets 06:17:15 0° 96° (E) 4,766 13.4 -8.6°
